STARLINK-33895, 63934

Orbit data source: Space-Track

STARLINK-33895, 63934 is a payload satellite owned by SpaceX/Seattle (US) in LEO that was launched on Tue, 13 May 2025 UTC via an FALCON 9 launch vehicle from the Air Force Western Test Range (AFWTR). Payload-class satellites include a variety of spacecraft equipped with specific instruments for various scientific and technological missions. These include communications satellites like Starlink; space stations such as the ISS; scientific satellites like the Hubble; Earth observation satellites from companies like Planet Labs, Umbra, and HawkEye 360; GPS; miniature CubeSats for education and research; and military/defense satellites.

Loading next visibility...
Identifier
63934, 2025-098J
Orbit
LEO
Country
Flag of USUS
Related business
Manufacturer
SpaceX/Seattle
Mission
Operational Commercial Communications
Bus & Motor
STARLINK V2MO, Unknown motor
Mass
575 kg wet, ~530 kg dry
Launch date (UTC)
2025-05-13 (1 year ago)
Launch vehicle
FALCON 9
Launch site
Air Force Western Test Range (AFWTR)
Object type
Payload
Rocket body
Debris
Shape & HBR
Box + 2 Pan, 17.7 m
Radar Cross Section
36.964 m², Large (>1 m²)

Expand to show TLE details & history
Last TLE update: 1 day ago

TLE from 1 day ago
0 STARLINK-33895
1 63934U 25098J   26170.96097567  .00009690  00000-0  81850-3 0  9993
2 63934  70.0015  16.5152 0003062 264.9921  95.0889 14.98344242 61898
Epoch: 2026-06-19T23:03Z
TLE epoch observation values (Epoch: 2026-06-19T23:03:48.297Z)
Latitude
-0.00001°
Longitude
122.38151°
Altitude
574.625 km
Speed
7.574 km/s
True Right ascension
01h 06m 03s
True Declination
0° 00' 00"
Sunlit
Object was in daylight at epoch
Visualization orbit readout
Latitude
Unknown
Longitude
Unknown
Altitude
Unknown
Speed
Unknown
Apparent Right ascension
Unknown
Apparent Declination
Unknown
Sunlit
N/A
Visualization observer readout
Local Sidereal Time
10:20:20
Azimuth
Unknown
Elevation
Unknown
Doppler factor
Unknown
Orbital elements
Apogee altitude
572.087 km
Perigee altitude
567.832 km
Semi-major axis
6,948.097 km
Eccentricity
0.00031
Inclination
70.0015°
RAAN
16.5152°
Arg. of periapsis
264.9921°
True anomaly
95.12385°
Mean anomaly
95.0889°
Eccentric anomaly
95.10637°
Mean motion
3.74752 °/min
Orbital period
96.06 mins
BSTAR
0.0008185
Loading maneuver chart data...
Computing Atmospheric mass density...
Loading historical data...
Loading historical data...
Loading historical data...
Loading historical data...
Loading historical data...
Loading historical data...
Loading historical data...

Documentation

Showing up to 5 results
|